星链-37248(STARLINK-37248)

导读

STARLINK-37248(NORAD编号68527)是SpaceX星链(Starlink)星座中的一颗低轨通信卫星。星链项目旨在为全球提供高速宽带互联网服务,该卫星依托近地轨道部署,可覆盖偏远地区,补充全球网络基础设施。作为星链批次部署中的一员,它延续了星座标准化设计,承担数据传输与星座组网功能,助力SpaceX实现全球卫星互联网覆盖的目标,目前已正常入轨参与星座运行。

基本信息
目录编号:
68527
目录名称:
STARLINK-37248
国际标识:
2026-068V
轨道中心:
EARTH
卫星名称:
星链-37248
卫星全名:
星链-37248(STARLINK-37248)
卫星状态:
在轨 (已飞行166 天)
发射日期:
2026-03-30 UTC
国别 :
美国 (US)
星等 :
--
该卫星已列入 空间交会检测服务 Space Conjunction Data Service (SCDS) ,当前飞行风险评估等级: 无高风险
轨道信息
数据来源 国际轨道数据 AOE轨道数据
星历时间 2026-09-12T12:50:41+0800
6小时前
查看轨道信息
2026-09-06T07:00:00+0800
6天前
查看轨道信息
半长轴 6840.81km 6840.899km
偏心率 0.0001497 0.0001193
轨道倾角 53.159° 53.160°
近地点辐角 80.739° 90.635°
升交点赤经 336.285° 5.473°
平近点角 279.378° 322.108°
近地点 461.648km 461.945km
远地点 463.698km 463.579km
周期 93.847分钟 93.849分钟
每日圈数 15.344103 15.343803
详细信息
固有亮度:
5
最大亮度:
2.5
卫星平台:
Starlink V1.0
覆盖范围:
全球
运营商:
太空探索技术公司
运营商所在国:
美国
制造商(研发单位):
太空探索技术公司
制造商所在国:
美国
使用方式:
暂无
卫星简介
Starlink 计划是 SpaceX 推出的全球卫星互联网项目,通过发射低轨道卫星,为全球尤其是偏远地区提供高速、低延迟的互联网服务。自 2019 年起,Starlink 已部署数千颗卫星,旨在缩小全球数字鸿沟,推动互联网普及。该项目还为军事、航空等行业提供通信支持,带来广泛经济效益。
2D轨道图
3D轨道图
轨道高度分析图
轨道倾角分析图
轨道综合分析图
查看轨道综合分析图
交会数据列表
事件ID 空间交会对象 最接近时刻(TCA) 交会距离 交会风险概率(CRP) 交会风险指数(CRI) 操作
CDM_260914-151005-329306-852722
2026-09-14T
15:10:06+0000
0.754 km
远距离
4.034723E-5 中风险 0.67
CDM_260914-164305-329306-852721
2026-09-14T
16:43:54+0000
1.681 km
极远距离
2.815661E-6 低风险 0.44
CDM_260909-083804-944506-852721
2026-09-09T
08:38:11+0000
2.647 km
极远距离
1.28775E-6 低风险 0.37
CDM_260912-063305-181406-852721
2026-09-12T
06:33:47+0000
2.777 km
极远距离
1.263093E-6 低风险 0.37
CDM_260909-140805-846606-852722
UHETSAT (58466)
2026-09-09T
14:08:54+0000
2.853 km
极远距离
9.089294E-7 极低风险 0.34
CDM_260914-133605-329306-852721
2026-09-14T
13:36:19+0000
2.974 km
极远距离
8.760033E-7 极低风险 0.34
与全量物体交会距离演化趋势
与全量物体交会风险概率演化趋势